Chignik, AK

6:20 AM AKST on February 24, 2017 (GMT -0900)
Chignik

Weather History for PAJC - February, 2014

Change the Weather History Date:

Saturday, February 8, 2014

  Actual Average Record
Temperature  
Mean Temperature 36 °F -  
Max Temperature 39 °F 34 °F 44 °F (2001)
Min Temperature 33 °F 27 °F 10 °F (2015)
Degree Days  
Heating Degree Days 29    
Moisture  
Dew Point 33 °F    
Average Humidity 86    
Maximum Humidity 100    
Minimum Humidity 60    
Precipitation  
Precipitation 0.57 in - - ()
Sea Level Pressure  
Sea Level Pressure 29.86 in    
Wind  
Wind Speed 20 mph (ENE)    
Max Wind Speed 32 mph    
Max Gust Speed 46 mph    
Visibility 9 miles    
Events      
Averages and records for this station are not official NWS values.
T = Trace of Precipitation, MM = Missing Value Source: NWS Daily Summary

Daily Weather History Graph

Daily Weather History Graph

Search for Another Location

Airport or City:

Trip Planner

Search our weather history database for the weather conditions in past years. The results will help you decide how hot, cold, wet, or windy it might be!

Date:

Astronomy

Feb. 08, 2014 Rise Set
Actual Time 9:14 AM AKST 6:21 PM AKST
Civil Twilight 8:34 AM AKST 7:01 PM AKST
Nautical Twilight 7:50 AM AKST 7:46 PM AKST
Astronomical Twilight 7:06 AM AKST 8:29 PM AKST
Moon 1:04 PM AKST (2/8) 4:55 AM AKST (2/8)
Length of Visible Light 10h 27m
Length of Day
9h 06m
Waxing Gibbous, 70% of the Moon is Illuminated
Feb 8
Waxing Gibbous
Feb 14
Full
Feb 22
Last Quarter
Feb 28
New
Mar 8
First Quarter

Hourly Weather History & Observations

Time (AKST) Temp. Windchill Dew Point Humidity Pressure Visibility Wind Dir Wind Speed Gust Speed Precip Events Conditions
12:16 AM 33.8 °F 24.8 °F 28.4 °F 81% 29.50 in 10.0 mi NE 12.7 mph 27.6 mph N/A   Overcast
12:36 AM 33.8 °F 23.2 °F 28.4 °F 81% 29.50 in 10.0 mi NE 17.3 mph 25.3 mph N/A   Overcast
12:56 AM 35.6 °F 25.2 °F 28.4 °F 75% 29.51 in 10.0 mi NE 18.4 mph 27.6 mph N/A   Overcast
1:16 AM 37.4 °F 24.6 °F 26.6 °F 65% 29.52 in 10.0 mi ENE 32.2 mph 42.6 mph N/A   Overcast
1:36 AM 37.4 °F 24.6 °F 24.8 °F 60% 29.54 in 10.0 mi ENE 32.2 mph 46.0 mph N/A   Overcast
1:56 AM 37.4 °F 25.0 °F 26.6 °F 65% 29.55 in 10.0 mi NE 29.9 mph 46.0 mph 0.01 in   Overcast
2:16 AM 37.4 °F 27.8 °F 24.8 °F 60% 29.57 in 10.0 mi ENE 17.3 mph 32.2 mph N/A   Overcast
2:36 AM 37.4 °F 28.9 °F 26.6 °F 65% 29.58 in 10.0 mi ENE 13.8 mph 29.9 mph N/A   Overcast
2:56 AM 35.6 °F 27.1 °F 26.6 °F 70% 29.59 in 10.0 mi ENE 12.7 mph 24.2 mph N/A   Overcast
3:16 AM 37.4 °F 30.8 °F 26.6 °F 65% 29.61 in 10.0 mi East 9.2 mph 20.7 mph N/A   Overcast
3:36 AM 37.4 °F 29.8 °F 24.8 °F 60% 29.61 in 10.0 mi ENE 11.5 mph 23.0 mph N/A   Overcast
3:56 AM 37.4 °F 29.8 °F 26.6 °F 65% 29.61 in 10.0 mi NE 11.5 mph 17.3 mph N/A   Mostly Cloudy
4:16 AM 37.4 °F 29.3 °F 26.6 °F 65% 29.62 in 10.0 mi ENE 12.7 mph 23.0 mph N/A   Mostly Cloudy
4:36 AM 35.6 °F 26.6 °F 30.2 °F 81% 29.62 in 5.0 mi ENE 13.8 mph 18.4 mph N/A   Overcast
4:56 AM 33.8 °F 24.3 °F 32.0 °F 93% 29.63 in 3.0 mi ENE 13.8 mph - 0.03 in   Overcast
5:16 AM 33.8 °F 27.0 °F 32.0 °F 93% 29.63 in 4.0 mi ENE 8.1 mph - 0.01 in   Overcast
5:36 AM 37.4 °F 25.4 °F 35.6 °F 93% 29.63 in 10.0 mi ENE 27.6 mph 36.8 mph 0.05 in   Overcast
5:56 AM 37.4 °F 25.4 °F 37.4 °F 100% 29.65 in 10.0 mi NE 27.6 mph 36.8 mph 0.06 in   Overcast
6:16 AM 39.2 °F 28.3 °F 35.6 °F 87% 29.66 in 10.0 mi NE 25.3 mph 40.3 mph N/A   Overcast
6:36 AM 37.4 °F 25.2 °F 35.6 °F 93% 29.67 in 6.0 mi NE 28.8 mph 41.4 mph 0.01 in   Overcast
6:56 AM 39.2 °F 29.0 °F 37.4 °F 93% 29.70 in 8.0 mi NE 21.9 mph 38.0 mph 0.01 in   Overcast
7:16 AM 37.4 °F 25.6 °F 35.6 °F 93% 29.71 in 6.0 mi NE 26.5 mph 38.0 mph 0.02 in   Overcast
7:36 AM 37.4 °F 25.0 °F 35.6 °F 93% 29.72 in 5.0 mi NE 29.9 mph 40.3 mph 0.03 in   Overcast
7:56 AM 37.4 °F 26.6 °F 37.4 °F 100% 29.74 in 9.0 mi NE 21.9 mph 34.5 mph 0.05 in   Overcast
8:16 AM 37.4 °F 25.9 °F 35.6 °F 93% 29.76 in 8.0 mi NE 25.3 mph 40.3 mph 0.01 in   Overcast
8:36 AM 37.4 °F 29.3 °F 35.6 °F 93% 29.79 in 8.0 mi ENE 12.7 mph 40.3 mph 0.05 in   Overcast
8:56 AM 37.4 °F 27.5 °F 35.6 °F 93% 29.81 in 10.0 mi ENE 18.4 mph 28.8 mph 0.07 in   Overcast
9:16 AM 37.4 °F 26.6 °F 35.6 °F 93% 29.82 in 8.0 mi NE 21.9 mph 35.7 mph N/A   Overcast
9:36 AM 37.4 °F 26.6 °F 35.6 °F 93% 29.84 in 10.0 mi NE 21.9 mph 36.8 mph N/A   Overcast
9:56 AM 37.4 °F 26.6 °F 35.6 °F 93% 29.88 in 10.0 mi NE 21.9 mph 33.4 mph 0.01 in   Overcast
10:16 AM 37.4 °F 28.2 °F 35.6 °F 93% 29.89 in 10.0 mi ENE 16.1 mph 23.0 mph N/A   Mostly Cloudy
10:36 AM 39.2 °F 29.3 °F 33.8 °F 81% 29.89 in 10.0 mi NE 20.7 mph 28.8 mph N/A   Overcast
10:56 AM 39.2 °F 30.2 °F 33.8 °F 81% 29.91 in 10.0 mi ENE 17.3 mph 29.9 mph N/A   Overcast
11:16 AM 39.2 °F 29.3 °F 30.2 °F 70% 29.93 in 10.0 mi NE 20.7 mph 29.9 mph N/A   Overcast
11:36 AM 39.2 °F 27.6 °F 32.0 °F 75% 29.93 in 10.0 mi NE 28.8 mph 40.3 mph N/A   Overcast
11:56 AM 39.2 °F 29.6 °F 32.0 °F 75% 29.94 in 10.0 mi ENE 19.6 mph 36.8 mph N/A   Overcast
12:16 PM 39.2 °F 29.6 °F 33.8 °F 81% 29.94 in 10.0 mi ENE 19.6 mph 27.6 mph N/A   Overcast
12:36 PM 39.2 °F 27.6 °F 33.8 °F 81% 29.95 in 10.0 mi NE 28.8 mph 33.4 mph N/A   Overcast
12:56 PM 39.2 °F 29.0 °F 33.8 °F 81% 29.95 in 10.0 mi ENE 21.9 mph 33.4 mph N/A   Overcast
1:16 PM 39.2 °F 28.7 °F 33.8 °F 81% 29.96 in 10.0 mi ENE 23.0 mph 29.9 mph N/A   Overcast
1:36 PM 39.2 °F 29.6 °F 32.0 °F 75% 29.96 in 10.0 mi ENE 19.6 mph 35.7 mph N/A   Overcast
1:56 PM 39.2 °F 28.7 °F 33.8 °F 81% 29.96 in 10.0 mi ENE 23.0 mph 38.0 mph N/A   Overcast
2:16 PM 39.2 °F 28.0 °F 33.8 °F 81% 29.96 in 10.0 mi ENE 26.5 mph 36.8 mph N/A   Overcast
2:36 PM 39.2 °F 28.0 °F 33.8 °F 81% 29.97 in 9.0 mi ENE 26.5 mph 33.4 mph N/A   Overcast
2:56 PM 37.4 °F 25.9 °F 33.8 °F 87% 29.97 in 9.0 mi NE 25.3 mph 33.4 mph 0.01 in   Overcast
3:16 PM 37.4 °F 26.9 °F 33.8 °F 87% 29.97 in 10.0 mi ENE 20.7 mph 31.1 mph N/A   Overcast
3:36 PM 39.2 °F 28.3 °F 33.8 °F 81% 29.97 in 10.0 mi ENE 25.3 mph 33.4 mph N/A   Overcast
3:56 PM 37.4 °F 26.4 °F 33.8 °F 87% 29.98 in 10.0 mi NE 23.0 mph 34.5 mph N/A   Overcast
4:16 PM 37.4 °F 25.9 °F 35.6 °F 93% 29.98 in 9.0 mi ENE 25.3 mph 34.5 mph 0.01 in   Overcast
4:36 PM 37.4 °F 26.6 °F 35.6 °F 93% 29.99 in 8.0 mi ENE 21.9 mph 35.7 mph 0.01 in   Overcast
4:56 PM 37.4 °F 26.4 °F 35.6 °F 93% 30.00 in 5.0 mi ENE 23.0 mph 33.4 mph 0.01 in   Overcast
5:16 PM 37.4 °F 26.1 °F 35.6 °F 93% 30.00 in 3.0 mi NE 24.2 mph 32.2 mph 0.01 in   Overcast
5:36 PM 37.4 °F 25.4 °F 35.6 °F 93% 30.01 in 2.5 mi ENE 27.6 mph 34.5 mph 0.02 in   Overcast
5:56 PM 37.4 °F 26.9 °F 35.6 °F 93% 30.01 in 4.0 mi NE 20.7 mph 33.4 mph 0.03 in   Overcast
6:16 PM 37.4 °F 25.6 °F 35.6 °F 93% 30.01 in 7.0 mi NE 26.5 mph 35.7 mph 0.01 in   Overcast
6:36 PM 37.4 °F 26.1 °F 35.6 °F 93% 30.02 in 7.0 mi ENE 24.2 mph 32.2 mph 0.01 in   Overcast
6:56 PM 37.4 °F 26.1 °F 35.6 °F 93% 30.03 in 8.0 mi NE 24.2 mph 31.1 mph 0.02 in   Overcast
7:16 PM 37.4 °F 26.9 °F 35.6 °F 93% 30.03 in 7.0 mi NE 20.7 mph 31.1 mph 0.03 in   Overcast
7:36 PM 35.6 °F 24.0 °F 35.6 °F 100% 30.05 in 7.0 mi NE 23.0 mph 35.7 mph 0.07 in   Overcast
7:56 PM 35.6 °F 23.7 °F 35.6 °F 100% 30.05 in 7.0 mi NE 24.2 mph 34.5 mph 0.09 in   Overcast
8:16 PM 35.6 °F 24.0 °F 35.6 °F 100% 30.06 in 10.0 mi ENE 23.0 mph 34.5 mph N/A   Overcast
8:36 PM 37.4 °F 26.6 °F 35.6 °F 93% 30.07 in 10.0 mi NE 21.9 mph 29.9 mph 0.01 in   Overcast
8:56 PM 37.4 °F 27.8 °F 35.6 °F 93% 30.08 in 9.0 mi NE 17.3 mph 28.8 mph 0.02 in   Overcast
9:16 PM 37.4 °F 26.6 °F 35.6 °F 93% 30.08 in 9.0 mi NE 21.9 mph 27.6 mph 0.07 in   Overcast
9:36 PM 37.4 °F 27.2 °F 35.6 °F 93% 30.09 in 10.0 mi ENE 19.6 mph 28.8 mph 0.12 in   Overcast
9:56 PM 37.4 °F 26.9 °F 35.6 °F 93% 30.10 in 9.0 mi NE 20.7 mph 28.8 mph 0.13 in   Overcast
10:16 PM 37.4 °F 27.2 °F 35.6 °F 93% 30.11 in 10.0 mi NE 19.6 mph 27.6 mph N/A   Overcast
10:36 PM 37.4 °F 27.5 °F 35.6 °F 93% 30.11 in 10.0 mi NE 18.4 mph 24.2 mph 0.02 in   Overcast
10:56 PM 37.4 °F 29.3 °F 35.6 °F 93% 30.11 in 10.0 mi ENE 12.7 mph - 0.02 in   Overcast
11:16 PM 37.4 °F 31.4 °F 35.6 °F 93% 30.11 in 10.0 mi ENE 8.1 mph - N/A   Overcast
11:36 PM 37.4 °F 30.8 °F 35.6 °F 93% 30.09 in 10.0 mi ESE 9.2 mph - N/A   Overcast
11:56 PM 37.4 °F 31.4 °F 35.6 °F 93% 30.09 in 10.0 mi ENE 8.1 mph - N/A   Overcast